EW4423 Weather Reports


Display with metric or nautical units.
time (UTC)temp
F
wind
direction
speed
MPH
gust
MPH
rain 1hr
in
rain 24hr
in
rain mn
in
humidity
%
barometer
mb
20260508033036 62 107 2.0 4.0 0.00 0.01 0.01 77 1015.1
20260508031535 63 108 2.0 4.0 0.00 0.01 0.01 77 1015.2
20260508030035 63 108 3.0 4.0 0.00 0.01 0.01 77 1015.1
20260508024544 63 109 4.0 7.0 0.00 0.06 0.01 76 1015.1
20260508023033 63 104 3.0 7.0 0.00 0.06 0.01 76 1014.9
20260508021536 64 92 3.0 4.0 0.00 0.06 0.01 75 1015.1
20260508020034 64 92 3.0 4.0 0.00 0.06 0.01 75 1014.9
20260508014545 65 90 1.0 4.0 0.00 0.06 0.01 74 1015.1
20260508013033 65 77 0.0 0.0 0.00 0.06 0.01 74 1014.9
20260508011538 66 76 0.0 0.0 0.00 0.06 0.01 73 1014.9
20260508010032 67 74 0.0 1.0 0.00 0.06 0.01 73 1015.1
20260508004531 67 72 2.0 4.0 0.00 0.06 0.01 72 1014.6
20260508003050 68 100 3.0 6.0 0.00 0.06 0.01 71 1014.5
20260508001530 69 108 2.0 4.0 0.00 0.06 0.01 70 1014.7
20260508000027 70 110 0.0 3.0 0.00 0.06 0.01 70 1015.0
20260507234526 70 109 0.0 3.0 0.00 0.06 0.01 69 1015.0
20260507233032 71 90 1.0 4.0 0.00 0.06 0.01 69 1015.0
20260507231529 71 90 3.0 7.0 0.00 0.06 0.01 68 1015.0
20260507230024 71 106 3.0 6.0 0.00 0.06 0.01 68 1015.0
20260507224524 71 110 2.0 8.0 0.00 0.06 0.01 69 1015.0
20260507223022 71 41 1.0 8.0 0.00 0.06 0.01 69 1015.2
20260507221523 71 80 3.0 6.0 0.00 0.06 0.01 68 1015.3
20260507220020 71 38 2.0 5.0 0.00 0.06 0.01 70 1015.2
20260507214519 71 49 3.0 6.0 0.00 0.06 0.01 69 1015.3
20260507213020 71 67 4.0 8.0 0.00 0.06 0.01 68 1015.4
20260507211518 72 60 4.0 9.0 0.00 0.06 0.01 68 1015.3
20260507210016 71 115 0.0 6.0 0.00 0.06 0.01 68 1015.6
20260507204513 71 96 3.0 8.0 0.00 0.06 0.01 69 1015.9
20260507203015 71 65 3.0 9.0 0.00 0.06 0.01 69 1016.0
20260507201512 71 33 1.0 5.0 0.00 0.06 0.01 70 1016.0
20260507200010 71 136 2.0 8.0 0.00 0.06 0.01 70 1016.1
20260507194507 71 32 3.0 10.0 0.00 0.06 0.01 71 1016.5
20260507193006 70 50 5.0 7.0 0.00 0.06 0.01 71 1016.8
20260507191508 70 56 6.0 11.0 0.00 0.06 0.01 71 1016.8
20260507190004 70 55 0.0 9.0 0.00 0.06 0.01 71 1016.9
20260507184505 70 51 8.0 12.0 0.00 0.06 0.01 71 1016.9
20260507183003 69 24 6.0 13.0 0.00 0.06 0.01 72 1016.8
20260507181600 70 28 6.0 14.0 0.00 0.06 0.01 72 1017.2
20260507180101 69 46 4.0 12.0 0.00 0.06 0.01 73 1017.4
20260507174556 69 49 6.0 11.0 0.00 0.06 0.01 74 1017.5
20260507173056 68 355 3.0 12.0 0.00 0.06 0.01 75 1017.9
20260507171555 68 50 1.0 11.0 0.00 0.06 0.01 76 1018.4
20260507170048 67 16 6.0 11.0 0.00 0.06 0.01 77 1018.8
20260507164547 66 360 5.0 11.0 0.00 0.06 0.01 78 1018.7
20260507163042 65 25 7.0 11.0 0.00 0.06 0.01 80 1018.8
20260507161540 64 74 2.0 8.0 0.00 0.06 0.01 82 1018.8
20260507160038 63 85 7.0 13.0 0.00 0.06 0.01 81 1019.1
20260507154532 63 56 5.0 9.0 0.00 0.06 0.01 83 1019.3
20260507153034 62 10 1.0 9.0 0.00 0.06 0.01 84 1019.4
20260507151528 61 50 3.0 10.0 0.00 0.06 0.01 85 1019.3
20260507150026 61 58 4.0 10.0 0.00 0.06 0.01 86 1019.5
20260507144523 60 44 4.0 11.0 0.00 0.06 0.01 88 1019.7
20260507143025 59 69 2.0 8.0 0.00 0.06 0.01 89 1019.7
20260507141517 58 61 3.0 8.0 0.00 0.06 0.01 91 1019.7
20260507140023 57 69 2.0 5.0 0.00 0.06 0.01 92 1020.0
20260507134509 56 29 0.0 6.0 0.00 0.06 0.01 93 1020.0
20260507133008 55 19 1.0 4.0 0.00 0.06 0.01 93 1019.9
20260507131504 54 21 0.0 4.0 0.00 0.06 0.01 93 1019.9
20260507130004 53 26 1.0 5.0 0.00 0.06 0.01 93 1019.8
20260507124507 52 355 1.0 4.0 0.00 0.06 0.01 93 1019.7
20260507123002 51 355 1.0 3.0 0.01 0.06 0.01 92 1019.7
20260507121559 51 355 2.0 4.0 0.01 0.06 0.01 92 1019.3
20260507120058 51 355 1.0 4.0 0.01 0.06 0.01 92 1018.9
20260507114554 51 360 1.0 4.0 0.01 0.06 0.01 92 1018.6
20260507113051 50 24 2.0 5.0 0.00 0.05 0.00 91 1018.2
20260507111551 51 19 3.0 5.0 0.00 0.05 0.00 91 1017.8
20260507110052 51 351 2.0 5.0 0.00 0.05 0.00 91 1017.7
20260507104547 51 22 2.0 6.0 0.00 0.05 0.00 91 1017.5
20260507103046 51 13 2.0 6.0 0.00 0.05 0.00 91 1017.4
20260507101559 51 5 3.0 6.0 0.00 0.05 0.00 91 1017.4
20260507100044 51 11 2.0 6.0 0.00 0.05 0.00 91 1017.3
20260507094554 51 36 2.0 5.0 0.00 0.05 0.00 91 1017.1
20260507093042 51 33 2.0 5.0 0.00 0.05 0.00 91 1017.0
20260507091555 51 58 2.0 5.0 0.00 0.05 0.00 91 1016.8
20260507090055 51 21 3.0 6.0 0.00 0.05 0.00 91 1016.9
20260507084537 52 5 2.0 5.0 0.00 0.05 0.00 90 1016.9
20260507083036 52 19 3.0 6.0 0.00 0.05 0.00 90 1016.7
20260507081549 52 73 2.0 4.0 0.00 0.05 0.00 90 1016.4
20260507080034 52 87 3.0 6.0 0.00 0.05 0.00 90 1016.3
20260507074537 53 79 3.0 6.0 0.00 0.05 0.00 90 1016.2
20260507073036 53 87 4.0 8.0 0.00 0.05 0.00 90 1016.2
20260507071529 53 96 3.0 6.0 0.00 0.05 0.00 90 1016.4
20260507070028 53 80 4.0 6.0 0.00 0.05 0.00 90 1016.6
20260507064526 53 67 2.0 6.0 0.00 0.05 0.00 90 1016.8
20260507063024 53 75 4.0 10.0 0.00 0.05 0.00 90 1016.8
20260507061530 54 64 5.0 11.0 0.00 0.05 0.00 90 1016.8
20260507060031 54 77 4.0 11.0 0.00 0.05 0.00 91 1016.8
20260507054522 54 59 5.0 10.0 0.00 0.05 0.00 91 1016.9
20260507053017 54 69 5.0 10.0 0.00 0.05 0.00 91 1017.3
20260507051513 54 65 3.0 10.0 0.00 0.05 0.00 91 1017.4
20260507050020 54 38 3.0 7.0 0.00 0.05 0.00 91 1017.4
20260507044521 54 51 3.0 10.0 0.00 0.05 0.05 91 1017.5
20260507043008 54 64 5.0 11.0 0.00 0.05 0.05 91 1017.4
20260507041507 54 78 7.0 12.0 0.00 0.05 0.05 91 1017.3
20260507040010 54 46 6.0 11.0 0.00 0.05 0.05 91 1017.3
20260507034506 54 49 5.0 10.0 0.02 0.05 0.05 90 1017.1